Location: Palomar Mountain Lodge
(33.3110°N, 116.8495°W)
Time: 05:07:19
(UTC-07:00)

MOZHAYETS 4 - Pass Details

Date: 20 April 2026
Orbit: 642 x 659 km, 98.3° (Epoch: 12 May)

Event Time Altitude Azimuth Distance (km) Brightness Sun altitude
Rises 19:39:54 0° 354° (N) 2,951 11.4 -4.4°
Reaches altitude 10° 19:42:37 10° 337° (NNW) 2,039 10.9 -5.0°
Maximum altitude 19:45:46 19° 291° (WNW) 1,512 11.0 -5.6°
Drops below altitude 10° 19:48:55 10° 246° (WSW) 2,036 11.0 -6.2°
Sets 19:51:37 0° 229° (SW) 2,945 11.5 -6.8°
